When you browse on this site, cookies collect data to enhance your experience and personalize the content and advertising you see.
Visit our Privacy Policy to learn more. By continuing to use the site, you agree to this use of cookies and data.
  • en Suisse
  • Liste des pays
  • À 7 jours
  • Température de l'eau
  • Carte satellitaire
  • Carte météo
  • Widgets météo
  • user-avatar
    Se connecter

    Météo par heure à Monheim

    Ce jour, 26 Mai, Dimanche

    Heure Température Précipitation Vent Pression Humidité
    00:00 +13°C° 0 mm 1 m/s 759 mmHg 77%
    01:00 +13°C° 0 mm 1 m/s 759 mmHg 80%
    02:00 +13°C° 0 mm 2 m/s 758 mmHg 83%
    03:00 +12°C° 0 mm 2 m/s 758 mmHg 86%
    04:00 +13°C° 0 mm 2 m/s 758 mmHg 82%
    05:00 +14°C° 0 mm 2 m/s 758 mmHg 79%
    06:00 +14°C° 0 mm 3 m/s 758 mmHg 76%
    07:00 +17°C° 0 mm 3 m/s 758 mmHg 69%
    08:00 +18°C° 0 mm 3 m/s 757 mmHg 62%
    09:00 +20°C° 0 mm 4 m/s 757 mmHg 55%
    10:00 +21°C° 0.1 mm 4 m/s 757 mmHg 56%
    11:00 +21°C° 0.1 mm 4 m/s 756 mmHg 57%
    12:00 +21°C° 0 mm 4 m/s 757 mmHg 58%
    13:00 +21°C° 0.1 mm 4 m/s 756 mmHg 57%
    14:00 +22°C° 0.1 mm 4 m/s 756 mmHg 57%
    15:00 +22°C° 0.1 mm 5 m/s 755 mmHg 57%
    16:00 +21°C° 0 mm 4 m/s 755 mmHg 59%
    17:00 +21°C° 0 mm 4 m/s 755 mmHg 61%
    18:00 +20°C° 0 mm 4 m/s 755 mmHg 63%
    19:00 +19°C° 0 mm 4 m/s 755 mmHg 68%
    20:00 +18°C° 0 mm 4 m/s 755 mmHg 73%
    21:00 +15°C° 0 mm 4 m/s 755 mmHg 78%
    22:00 +15°C° 0 mm 4 m/s 754 mmHg 80%
    23:00 +14°C° 0 mm 4 m/s 754 mmHg 82%

    Demain, 27 Mai, Lundi

    Heure Température Précipitation Vent Pression Humidité
    00:00 +14°C° 0 mm 4 m/s 754 mmHg 84%
    01:00 +14°C° 0.3 mm 4 m/s 754 mmHg 86%
    02:00 +14°C° 0.3 mm 3 m/s 753 mmHg 88%
    03:00 +14°C° 0.3 mm 3 m/s 753 mmHg 89%
    04:00 +14°C° 0.6 mm 3 m/s 753 mmHg 90%
    05:00 +14°C° 0.6 mm 3 m/s 753 mmHg 91%
    06:00 +15°C° 0.6 mm 2 m/s 753 mmHg 92%
    07:00 +16°C° 0.2 mm 2 m/s 753 mmHg 87%
    08:00 +16°C° 0.2 mm 2 m/s 754 mmHg 82%
    09:00 +17°C° 0.2 mm 2 m/s 754 mmHg 77%
    10:00 +18°C° 0 mm 2 m/s 754 mmHg 70%
    11:00 +19°C° 0 mm 3 m/s 754 mmHg 63%
    12:00 +20°C° 0 mm 3 m/s 753 mmHg 56%
    13:00 +20°C° 0 mm 3 m/s 753 mmHg 54%
    14:00 +20°C° 0 mm 4 m/s 753 mmHg 51%
    15:00 +20°C° 0 mm 4 m/s 753 mmHg 49%
    16:00 +19°C° 0 mm 4 m/s 753 mmHg 52%
    17:00 +19°C° 0 mm 3 m/s 753 mmHg 55%
    18:00 +18°C° 0 mm 3 m/s 752 mmHg 58%
    19:00 +17°C° 0 mm 2 m/s 753 mmHg 58%
    20:00 +17°C° 0 mm 2 m/s 753 mmHg 59%
    21:00 +16°C° 0 mm 1 m/s 753 mmHg 60%
    22:00 +15°C° 0 mm 1 m/s 753 mmHg 62%
    23:00 +14°C° 0 mm 1 m/s 752 mmHg 65%

    Après-demain, 28 Mai, Mardi

    Heure Température Précipitation Vent Pression Humidité
    00:00 +14°C° 0 mm 1 m/s 752 mmHg 68%
    01:00 +13°C° 0 mm 1 m/s 752 mmHg 72%
    02:00 +13°C° 0 mm 2 m/s 752 mmHg 76%
    03:00 +12°C° 0 mm 2 m/s 752 mmHg 81%
    04:00 +13°C° 0.2 mm 2 m/s 752 mmHg 82%
    05:00 +12°C° 0.2 mm 3 m/s 752 mmHg 84%
    06:00 +12°C° 0.2 mm 3 m/s 752 mmHg 86%
    07:00 +13°C° 0.1 mm 3 m/s 752 mmHg 79%
    08:00 +14°C° 0.1 mm 3 m/s 752 mmHg 73%
    09:00 +16°C° 0.1 mm 3 m/s 752 mmHg 66%
    10:00 +17°C° 0.5 mm 3 m/s 752 mmHg 64%
    11:00 +18°C° 0.5 mm 3 m/s 752 mmHg 61%
    12:00 +18°C° 0.5 mm 3 m/s 752 mmHg 59%
    13:00 +19°C° 0.7 mm 3 m/s 752 mmHg 58%
    14:00 +19°C° 0.7 mm 3 m/s 753 mmHg 58%
    15:00 +19°C° 0.7 mm 2 m/s 753 mmHg 57%
    16:00 +18°C° 0.6 mm 2 m/s 753 mmHg 61%
    17:00 +17°C° 0.6 mm 2 m/s 754 mmHg 64%
    18:00 +17°C° 0.6 mm 2 m/s 754 mmHg 67%
    19:00 +14°C° 0.3 mm 3 m/s 755 mmHg 71%
    20:00 +13°C° 0.3 mm 3 m/s 756 mmHg 75%
    21:00 +12°C° 0.3 mm 3 m/s 757 mmHg 79%
    22:00 +12°C° 0 mm 3 m/s 757 mmHg 80%
    23:00 +12°C° 0 mm 2 m/s 757 mmHg 81%

    29 Mai, Mercredi

    Heure Température Précipitation Vent Pression Humidité
    00:00 +10°C° 0 mm 2 m/s 758 mmHg 82%
    01:00 +10°C° 0 mm 2 m/s 758 mmHg 81%
    02:00 +9°C° 0 mm 2 m/s 758 mmHg 80%
    03:00 +10°C° 0 mm 1 m/s 758 mmHg 79%
    04:00 +10°C° 0 mm 1 m/s 759 mmHg 76%
    05:00 +11°C° 0 mm 1 m/s 759 mmHg 73%
    06:00 +12°C° 0 mm 1 m/s 759 mmHg 70%
    07:00 +14°C° 0 mm 1 m/s 759 mmHg 64%
    08:00 +16°C° 0 mm 1 m/s 759 mmHg 58%
    09:00 +19°C° 0 mm 1 m/s 759 mmHg 53%
    10:00 +19°C° 0.1 mm 2 m/s 759 mmHg 50%
    11:00 +20°C° 0.1 mm 2 m/s 758 mmHg 48%
    12:00 +21°C° 0.1 mm 2 m/s 758 mmHg 45%
    13:00 +20°C° 0.2 mm 3 m/s 758 mmHg 48%
    14:00 +20°C° 0.2 mm 3 m/s 758 mmHg 50%
    15:00 +20°C° 0.2 mm 3 m/s 758 mmHg 53%
    16:00 +19°C° 0.2 mm 3 m/s 757 mmHg 57%
    17:00 +19°C° 0.2 mm 3 m/s 757 mmHg 62%
    18:00 +18°C° 0.2 mm 3 m/s 757 mmHg 66%
    19:00 +17°C° 0.2 mm 3 m/s 757 mmHg 71%
    20:00 +14°C° 0.2 mm 3 m/s 758 mmHg 75%
    21:00 +13°C° 0.2 mm 3 m/s 758 mmHg 79%
    22:00 +13°C° 0.5 mm 3 m/s 758 mmHg 82%
    23:00 +13°C° 0.5 mm 3 m/s 757 mmHg 85%

    30 Mai, Jeudi

    Heure Température Précipitation Vent Pression Humidité
    00:00 +13°C° 0.5 mm 3 m/s 757 mmHg 88%
    01:00 +13°C° 0.4 mm 3 m/s 757 mmHg 89%
    02:00 +13°C° 0.4 mm 3 m/s 757 mmHg 90%
    03:00 +14°C° 0.4 mm 3 m/s 757 mmHg 92%
    04:00 +14°C° 0.3 mm 3 m/s 757 mmHg 91%
    05:00 +14°C° 0.3 mm 3 m/s 758 mmHg 91%
    06:00 +14°C° 0.3 mm 3 m/s 758 mmHg 91%
    07:00 +15°C° 0.2 mm 4 m/s 758 mmHg 88%
    08:00 +15°C° 0.2 mm 4 m/s 758 mmHg 85%
    09:00 +17°C° 0.2 mm 4 m/s 759 mmHg 81%
    10:00 +18°C° 0.1 mm 4 m/s 759 mmHg 77%
    11:00 +19°C° 0.1 mm 5 m/s 759 mmHg 72%
    12:00 +20°C° 0.1 mm 5 m/s 759 mmHg 67%
    13:00 +19°C° 0.4 mm 5 m/s 759 mmHg 73%
    14:00 +17°C° 0.4 mm 5 m/s 759 mmHg 79%
    15:00 +16°C° 0.4 mm 5 m/s 759 mmHg 85%
    16:00 +16°C° 0.3 mm 5 m/s 759 mmHg 86%
    17:00 +16°C° 0.3 mm 5 m/s 759 mmHg 87%
    18:00 +16°C° 0.3 mm 5 m/s 759 mmHg 88%
    19:00 +16°C° 0.1 mm 5 m/s 759 mmHg 88%
    20:00 +15°C° 0.1 mm 4 m/s 758 mmHg 89%
    21:00 +15°C° 0.1 mm 4 m/s 758 mmHg 89%
    22:00 +15°C° 1.1 mm 5 m/s 759 mmHg 90%
    23:00 +15°C° 1.1 mm 5 m/s 759 mmHg 90%

    31 Mai, Vendredi

    Heure Température Précipitation Vent Pression Humidité
    00:00 +15°C° 1.1 mm 6 m/s 759 mmHg 90%
    01:00 +14°C° 0.1 mm 6 m/s 760 mmHg 88%
    02:00 +13°C° 0.1 mm 6 m/s 760 mmHg 86%
    03:00 +12°C° 0.1 mm 5 m/s 761 mmHg 85%
    04:00 +10°C° 0 mm 5 m/s 762 mmHg 81%
    05:00 +10°C° 0 mm 5 m/s 763 mmHg 78%
    06:00 +10°C° 0 mm 4 m/s 765 mmHg 74%
    07:00 +11°C° 0 mm 4 m/s 765 mmHg 66%
    08:00 +13°C° 0 mm 4 m/s 766 mmHg 58%
    09:00 +14°C° 0 mm 4 m/s 766 mmHg 50%
    10:00 +16°C° 0 mm 3 m/s 767 mmHg 47%
    11:00 +17°C° 0 mm 3 m/s 767 mmHg 43%
    12:00 +17°C° 0 mm 3 m/s 767 mmHg 39%
    13:00 +18°C° 0 mm 3 m/s 767 mmHg 40%
    14:00 +18°C° 0 mm 3 m/s 768 mmHg 41%
    15:00 +18°C° 0 mm 3 m/s 768 mmHg 41%
    16:00 +18°C° 0 mm 3 m/s 768 mmHg 45%
    17:00 +17°C° 0 mm 3 m/s 768 mmHg 48%
    18:00 +17°C° 0 mm 3 m/s 768 mmHg 52%
    19:00 +15°C° 0 mm 2 m/s 769 mmHg 55%
    20:00 +14°C° 0 mm 2 m/s 769 mmHg 59%
    21:00 +13°C° 0 mm 2 m/s 770 mmHg 62%
    22:00 +12°C° 0 mm 1 m/s 770 mmHg 67%
    23:00 +11°C° 0 mm 1 m/s 770 mmHg 72%
    Voir plus